Regional Weather Roundup
Issued by NWS

Home | Current Version | Previous Version | Graphics & Text | Print | Product List | Glossary On
Versions: 1 2 3 4 5 6 7 8 9 10 11 12 13 14 15 16 17 18 19 20 21 22 23 24 25 26 27 28 29 30 31 32 33 34 35 36 37 38 39 40 41 42 43 44 45 46 47 48 49 50
000
ASUS43 KLOT 210612
RWRIL

ILLINOIS REGIONAL WEATHER ROUNDUP
NATIONAL WEATHER SERVICE CHICAGO/ROMEOVILLE IL
1200 AM CST SAT JAN 21 2017

NOTE: "FAIR" INDICATES FEW OR NO CLOUDS BELOW 12,000 FEET WITH NO
SIGNIFICANT WEATHER AND/OR OBSTRUCTIONS TO VISIBILITY.

* THESE STATIONS ARE NOT UNDER NWS QUALITY CONTROL. THEY ALSO MAY NOT
  REPORT WEATHER SUCH AS PRECIPITATION OR FOG.

ILZ001-002-007-009-015-016-024-210700-
NORTHWEST ILLINOIS

CITY           SKY/WX    TMP DP  RH WIND       PRES   REMARKS
MOLINE         FOG       42  40  92 E7        29.53F VSB 1/4
6HR MIN TEMP:  41; 6HR MAX TEMP:  44;

STERLING*      FOG       39  39 100 E5        29.56F VSB 1/4
SAVANNA*       CLOUDY    39  39  99 E6        29.56F FOG     WCI  35
$$

ILZ003-004-008-010-011-017-018-210700-
NORTH CENTRAL ILLINOIS

CITY           SKY/WX    TMP DP  RH WIND       PRES   REMARKS
ROCKFORD       FOG       42  40  92 SE6       29.59F VSB 1
6HR MIN TEMP:  40; 6HR MAX TEMP:  42; 6HR PCP:  0.01;

FREEPORT*      FOG       37  37 100 E5        29.59F VSB 1/4 WCI  33
ROCHELLE*      CLOUDY    41  41 100 SE7       29.58F FOG
DE KALB*       FOG       43  42  99 SE9       29.59F VSB 1/4
$$

ILZ005-006-012>014-019>023-210700-
NORTHEAST ILLINOIS

CITY           SKY/WX    TMP DP  RH WIND       PRES   REMARKS
CHICAGO-OHARE  DRZL/FOG  42  41  96 CALM      29.61F VSB 1
6HR MIN TEMP:  41; 6HR MAX TEMP:  43; 6HR PCP:  0.02;

CHICAGO-MIDWAY CLOUDY    47  45  93 S6        29.61F FOG
6HR MIN TEMP:  41; 6HR MAX TEMP:  47; 6HR PCP: TRACE;

AURORA         FOG       44  42  93 SE9       29.59F VSB 3/4
6HR MIN TEMP:  41; 6HR MAX TEMP:  45; 6HR PCP:  0.02;

LANSING*       LGT RAIN  47  47 100 S5        29.63S
JOLIET*        CLOUDY    47  47  99 CALM      29.61F FOG
WAUKEGAN       FOG       38  38 100 CALM      29.61F VSB 1/4
6HR MIN TEMP:  36; 6HR MAX TEMP:  39;

DUPAGE AIRPORT CLOUDY    45  43  93 SE7       29.59F FOG
6HR MIN TEMP:  41; 6HR MAX TEMP:  45; 6HR PCP:  0.02;

KANKAKEE*      CLOUDY    49  48  98 S7        29.62F
WHEELING       LGT RAIN  39  38  96 CALM      29.62F VSB 3/4
6HR MIN TEMP:  38; 6HR MAX TEMP:  39; 6HR PCP:  0.01;

MORRIS*        FOG       44  44  98 SE5       29.59F VSB 1/2
ROMEOVILLE*    CLOUDY    45  45 100 S9        29.60F FOG
NORTHERLY ISL    N/A     39  38  96 SE3         N/A
$$

LMZ740>746-210700-
SOUTHERN LAKE MICHIGAN

STATION/POSITION SKY/WX   TEMP    WIND        PRES    VSBY  WAVE
                          AIR SEA DIR/SP/G                  HT/PER
                          (F)     (DEG/KT/KT) (MB)    (MI)  (FT/S)
HARRISON CRIB              41     160/  6/  6   N/A
BURNHAM HARBOR             39      CALM  /  3   N/A
CALUMET HARBOR                    150/  6/ 12 1002.6F
BURNS HARBOR               49     150/ 10/ 17 1004.1F
MICHIGAN CITY              49     130/ 13/ 15   N/A
$$

ILZ025>027-034>036-040-047-049-050-058-095>099-210700-
WEST-CENTRAL ILLINOIS

CITY           SKY/WX    TMP DP  RH WIND       PRES   REMARKS
QUINCY         CLEAR     48  47  96 SE8       29.51F FOG
GALESBURG*     FOG       46  46 100 SE5       29.52F VSB 1/2
MACOMB*        CLOUDY    48  48 100 S10       29.54F FOG
JACKSONVILLE*  CLEAR     51  49  93 S10G16    29.56S
PITTSFIELD*    CLEAR     47  47  99 S7        29.55S FOG
$$

ILZ028>032-037-038-041>044-048-051>054-059>061-210700-
CENTRAL ILLINOIS

CITY           SKY/WX    TMP DP  RH WIND       PRES   REMARKS
PONTIAC        CLOUDY    44  44 100 E6        29.60F FOG
BLOOMINGTON    PTCLDY    49  48  97 S15       29.59F FOG
DECATUR        PTCLDY    51  51 100 S12       29.60F
PEORIA         MOCLDY    51  50  96 S10       29.55F
6HR MIN TEMP:  47; 6HR MAX TEMP:  51; 6HR PCP:  0.01;

LACON*         CLOUDY    44  44 100 SE3       29.55F FOG
LINCOLN*       PTCLDY    51  51  99 S8        29.58F
SPRINGFIELD    PTCLDY    53  50  89 S16       29.58F
6HR MIN TEMP:  48; 6HR MAX TEMP:  54;

TAYLORVILLE    PTCLDY    51  50  96 S12G17    29.60S
6HR MIN TEMP:  50; 6HR MAX TEMP:  53;

$$

ILZ033-039-045-046-055>057-062-063-210700-
EAST-CENTRAL ILLINOIS

CITY           SKY/WX    TMP DP  RH WIND       PRES   REMARKS
CHAMPAIGN      CLOUDY    53  49  86 S14       29.62F
RANTOUL*       CLOUDY    52  51  97 S9        29.63S
MATTOON        CLEAR     51  50  96 S9        29.63F
PARIS*         MOCLDY    52  51  97 S8        29.66F
$$

ILZ079-100>102-210700-
SOUTHWEST ILLINOIS

CITY           SKY/WX    TMP DP  RH WIND       PRES   REMARKS
ALTON          CLEAR     54  51  90 S13       29.60S
BELLEVILLE     CLEAR     53  53 100 E6        29.60S
CAHOKIA*       CLEAR     53  49  86 SE5       29.60S
SPARTA*        CLEAR     55  51  89 S9        29.63F
$$

ILZ064>066-069>071-074>076-080>082-084>086-088>090-092>094-210700-
SOUTH-CENTRAL ILLINOIS

CITY           SKY/WX    TMP DP  RH WIND       PRES   REMARKS
CARBONDALE     PTCLDY    50  50 100 E7        29.65F
6HR MIN TEMP:  50; 6HR MAX TEMP:  57;

CAIRO*         PTCLDY    54  51  90 S6        29.68R
EFFINGHAM*     CLEAR     53  53 100 SE9       29.65S
MARION         CLEAR     52  52 100 S8        29.67S
MT. VERNON     CLEAR     49  48  97 S6        29.65S
CENTRALIA*     CLEAR     53  52  96 S10       29.63F
SALEM*         CLEAR     55  51  88 S9        29.64R
METROPOLIS*    PTCLDY    55  53  92 CALM      29.69R
$$

ILZ067-068-072-073-078-083-087-091-210700-
SOUTHEAST ILLINOIS

CITY           SKY/WX    TMP DP  RH WIND       PRES   REMARKS
LAWRENCEVILLE  CLEAR     48  48 100 S6        29.67F
FLORA*         CLEAR     49  49  97 S3        29.65S
FAIRFIELD*     CLEAR     51  51  98 CALM      29.65F
HARRISBURG*    PTCLDY    56  53  88 SW7       29.67S
ROBINSON*      CLEAR     50  49  97 SE7       29.68S
CARMI*         CLEAR     47  47 100 S5        29.66S FOG
$$

ABBREVIATIONS USED IN REMARKS
   TC - TEMPERATURE IN CELSIUS
  WCI - WIND CHILL INDEX
   HX - HEAT INDEX
  VSB - VISIBILITY
$$





USA.gov is the U.S. government's official web portal to all federal, state and local government web resources and services.